KUIPER-00124

基本信息
目录编号:
65766
目录名称:
KUIPER-00142
国际标识:
2025-217E
轨道中心:
EARTH
卫星名称:
KUIPER-00124
卫星全名:
KUIPER-00124
卫星状态:
在轨 (已飞行25 天)
发射日期:
2025-09-25 UTC
国别 :
美国 (US)
星等 :
--
轨道信息
数据来源 国际轨道数据
星历时间: 2025-10-20T14:59:36+0800
9小时前
查看轨道信息
半长轴: 6834.4km
偏心率: 0.0003128
轨道倾角: 51.871°
近地点辐角 146.064°
升交点赤经 322.781°
平近点角 214.055°
近地点: 454.127km
远地点: 458.403km
周期: 93.715分钟
每日圈数: 15.365696
详细信息
使用方式:
暂无
2D轨道图
3D轨道图
轨道高度分析图
轨道倾角分析图
轨道综合分析图
查看轨道综合分析图